| time (UTC) | temp F | wind direction | speed MPH | gust MPH | rain 1hr in | rain 24hr in | rain mn in | humidity % | barometer mb |
| 20260831042251 | 59 | 309 | 6.0 | 13.0 | 0.00 | 0.25 | 0.00 | 91 | 1009.0 |
| 20260831041750 | 59 | 297 | 4.0 | 9.0 | 0.00 | 0.25 | 0.00 | 92 | 1008.9 |
| 20260831041252 | 59 | 270 | 2.0 | 6.0 | 0.00 | 0.25 | 0.00 | 92 | 1008.8 |
| 20260831040251 | 59 | 282 | 3.0 | 6.0 | 0.00 | 0.26 | 0.00 | 92 | 1008.6 |
| 20260831035751 | 59 | 288 | 2.0 | 6.0 | 0.00 | 0.26 | 0.00 | 92 | 1008.5 |
| 20260831035251 | 59 | 289 | 3.0 | 9.0 | 0.00 | 0.26 | 0.00 | 92 | 1008.5 |
| 20260831034751 | 59 | 298 | 2.0 | 7.0 | 0.00 | 0.26 | 0.00 | 92 | 1008.4 |
| 20260831034250 | 58 | 283 | 2.0 | 6.0 | 0.00 | 0.26 | 0.00 | 92 | 1008.3 |
| 20260831033752 | 58 | 311 | 1.0 | 5.0 | 0.00 | 0.26 | 0.00 | 93 | 1008.2 |
| 20260831033252 | 58 | 279 | 2.0 | 5.0 | 0.00 | 0.26 | 0.00 | 93 | 1008.1 |
| 20260831032751 | 58 | 271 | 0.0 | 3.0 | 0.00 | 0.26 | 0.00 | 93 | 1008.0 |
| 20260831032251 | 58 | 301 | 0.0 | 1.0 | 0.00 | 0.26 | 0.00 | 93 | 1008.0 |
| 20260831031751 | 58 | 273 | 1.0 | 3.0 | 0.00 | 0.26 | 0.00 | 93 | 1007.8 |
| 20260831031251 | 58 | 286 | 0.0 | 1.0 | 0.00 | 0.26 | 0.00 | 93 | 1007.8 |
| 20260831030751 | 58 | 265 | 0.0 | 2.0 | 0.00 | 0.26 | 0.00 | 93 | 1007.7 |
| 20260831030251 | 58 | 292 | 1.0 | 3.0 | 0.00 | 0.26 | 0.00 | 93 | 1007.6 |
| 20260831025751 | 58 | 292 | 1.0 | 5.0 | 0.00 | 0.26 | 0.00 | 93 | 1007.5 |
| 20260831025250 | 58 | 284 | 2.0 | 6.0 | 0.00 | 0.28 | 0.00 | 93 | 1007.4 |
| 20260831024751 | 58 | 298 | 2.0 | 5.0 | 0.00 | 0.28 | 0.00 | 93 | 1007.4 |
| 20260831024252 | 58 | 277 | 2.0 | 6.0 | 0.00 | 0.28 | 0.00 | 93 | 1007.3 |
| 20260831023752 | 58 | 293 | 2.0 | 6.0 | 0.00 | 0.28 | 0.00 | 92 | 1007.2 |
| 20260831023252 | 58 | 272 | 2.0 | 5.0 | 0.00 | 0.28 | 0.00 | 93 | 1007.1 |
| 20260831022752 | 58 | 280 | 3.0 | 6.0 | 0.00 | 0.28 | 0.00 | 93 | 1007.0 |
| 20260831022252 | 58 | 294 | 3.0 | 6.0 | 0.00 | 0.28 | 0.00 | 93 | 1007.0 |
| 20260831021752 | 58 | 273 | 2.0 | 5.0 | 0.00 | 0.28 | 0.00 | 93 | 1006.8 |
| 20260831021253 | 58 | 282 | 2.0 | 6.0 | 0.00 | 0.28 | 0.00 | 93 | 1006.8 |
| 20260831020752 | 58 | 283 | 2.0 | 5.0 | 0.00 | 0.28 | 0.00 | 93 | 1006.6 |
| 20260831020251 | 58 | 283 | 2.0 | 5.0 | 0.00 | 0.28 | 0.00 | 92 | 1006.6 |
| 20260831015752 | 58 | 290 | 2.0 | 5.0 | 0.00 | 0.28 | 0.00 | 92 | 1006.5 |
| 20260831015252 | 58 | 289 | 3.0 | 6.0 | 0.00 | 0.28 | 0.00 | 92 | 1006.4 |
| 20260831014752 | 58 | 286 | 2.0 | 6.0 | 0.00 | 0.28 | 0.00 | 92 | 1006.4 |
| 20260831014251 | 58 | 285 | 2.0 | 6.0 | 0.00 | 0.28 | 0.00 | 92 | 1006.3 |
| 20260831013252 | 58 | 284 | 3.0 | 7.0 | 0.00 | 0.28 | 0.00 | 92 | 1006.2 |
| 20260831012753 | 58 | 267 | 2.0 | 6.0 | 0.00 | 0.28 | 0.00 | 91 | 1006.1 |
| 20260831011752 | 58 | 277 | 4.0 | 8.0 | 0.00 | 0.28 | 0.00 | 92 | 1005.9 |
| 20260831011252 | 58 | 284 | 4.0 | 9.0 | 0.00 | 0.28 | 0.00 | 92 | 1005.9 |
| 20260831010753 | 58 | 291 | 4.0 | 7.0 | 0.00 | 0.28 | 0.00 | 92 | 1005.8 |
| 20260831010252 | 58 | 287 | 2.0 | 8.0 | 0.00 | 0.28 | 0.00 | 92 | 1005.7 |
| 20260831005752 | 58 | 295 | 2.0 | 6.0 | 0.00 | 0.28 | 0.00 | 92 | 1005.7 |
| 20260831005253 | 58 | 282 | 1.0 | 7.0 | 0.00 | 0.28 | 0.00 | 92 | 1005.6 |
| 20260831004752 | 58 | 291 | 3.0 | 9.0 | 0.00 | 0.28 | 0.00 | 92 | 1005.6 |
| 20260831004253 | 58 | 279 | 2.0 | 8.0 | 0.00 | 0.28 | 0.00 | 92 | 1005.6 |
| 20260831003752 | 58 | 284 | 3.0 | 6.0 | 0.00 | 0.28 | 0.00 | 92 | 1005.5 |
| 20260831002253 | 58 | 288 | 2.0 | 13.0 | 0.00 | 0.28 | 0.00 | 92 | 1005.4 |
| 20260831001752 | 58 | 292 | 3.0 | 6.0 | 0.00 | 0.28 | 0.00 | 92 | 1005.4 |
| 20260831001253 | 58 | 276 | 3.0 | 7.0 | 0.00 | 0.28 | 0.00 | 92 | 1005.2 |
| 20260831000752 | 58 | 282 | 3.0 | 7.0 | 0.00 | 0.28 | 0.00 | 92 | 1005.1 |
| 20260831000252 | 58 | 291 | 3.0 | 6.0 | 0.00 | 0.28 | 0.00 | 92 | 1005.1 |
| 20260830235752 | 58 | 287 | 4.0 | 7.0 | 0.00 | 0.28 | 0.00 | 92 | 1005.0 |
| 20260830235254 | 58 | 287 | 3.0 | 7.0 | 0.00 | 0.28 | 0.00 | 92 | 1004.8 |
| 20260830234752 | 58 | 287 | 3.0 | 6.0 | 0.00 | 0.28 | 0.00 | 92 | 1004.8 |
| 20260830234253 | 58 | 298 | 3.0 | 7.0 | 0.00 | 0.28 | 0.00 | 91 | 1004.7 |
| 20260830233752 | 59 | 288 | 4.0 | 10.0 | 0.00 | 0.28 | 0.00 | 91 | 1004.6 |
| 20260830232753 | 59 | 278 | 3.0 | 12.0 | 0.00 | 0.28 | 0.00 | 92 | 1004.4 |
| 20260830232252 | 59 | 286 | 5.0 | 9.0 | 0.00 | 0.28 | 0.00 | 92 | 1004.5 |
| 20260830231752 | 59 | 285 | 3.0 | 6.0 | 0.00 | 0.28 | 0.00 | 92 | 1004.4 |
| 20260830231254 | 59 | 304 | 3.0 | 7.0 | 0.00 | 0.28 | 0.00 | 92 | 1004.4 |
| 20260830230814 | 58 | 289 | 5.0 | 9.0 | 0.00 | 0.28 | 0.00 | 92 | 1004.3 |
| 20260830230254 | 58 | 284 | 3.0 | 6.0 | 0.00 | 0.28 | 0.00 | 92 | 1004.2 |
| 20260830225753 | 58 | 278 | 3.0 | 9.0 | 0.00 | 0.28 | 0.28 | 92 | 1004.1 |
| 20260830225253 | 58 | 289 | 2.0 | 7.0 | 0.00 | 0.28 | 0.28 | 92 | 1004.2 |
| 20260830224753 | 58 | 278 | 2.0 | 7.0 | 0.00 | 0.28 | 0.28 | 93 | 1004.1 |
| 20260830224253 | 58 | 277 | 3.0 | 6.0 | 0.00 | 0.28 | 0.28 | 93 | 1004.0 |
| 20260830223754 | 58 | 283 | 2.0 | 6.0 | 0.00 | 0.28 | 0.28 | 94 | 1004.0 |
| 20260830222753 | 57 | 284 | 1.0 | 3.0 | 0.00 | 0.28 | 0.28 | 93 | 1003.8 |
| 20260830222253 | 57 | 273 | 1.0 | 2.0 | 0.00 | 0.28 | 0.28 | 93 | 1003.8 |
| 20260830221753 | 57 | 290 | 1.0 | 2.0 | 0.00 | 0.28 | 0.28 | 93 | 1003.7 |
| 20260830220754 | 57 | 267 | 1.0 | 2.0 | 0.00 | 0.28 | 0.28 | 93 | 1003.5 |
| 20260830220253 | 57 | 279 | 1.0 | 5.0 | 0.00 | 0.28 | 0.28 | 94 | 1003.5 |
| 20260830215753 | 57 | 284 | 2.0 | 6.0 | 0.00 | 0.28 | 0.28 | 94 | 1003.5 |
| 20260830215255 | 56 | 276 | 2.0 | 5.0 | 0.00 | 0.28 | 0.28 | 94 | 1003.4 |
| 20260830214753 | 56 | 273 | 1.0 | 3.0 | 0.00 | 0.28 | 0.28 | 94 | 1003.3 |
| 20260830214254 | 56 | 275 | 1.0 | 2.0 | 0.01 | 0.28 | 0.28 | 94 | 1003.2 |
| 20260830213253 | 56 | 282 | 1.0 | 3.0 | 0.01 | 0.28 | 0.28 | 94 | 1003.2 |
| 20260830212755 | 56 | 281 | 1.0 | 3.0 | 0.01 | 0.28 | 0.28 | 94 | 1003.1 |
| 20260830212254 | 56 | 285 | 1.0 | 3.0 | 0.01 | 0.28 | 0.28 | 94 | 1003.0 |
| 20260830211254 | 56 | 279 | 0.0 | 3.0 | 0.01 | 0.28 | 0.28 | 94 | 1002.9 |
| 20260830210755 | 56 | 279 | 1.0 | 2.0 | 0.01 | 0.28 | 0.28 | 94 | 1002.8 |
| 20260830210254 | 56 | 271 | 1.0 | 5.0 | 0.01 | 0.28 | 0.28 | 94 | 1002.7 |
| 20260830205754 | 56 | 286 | 1.0 | 5.0 | 0.01 | 0.28 | 0.28 | 94 | 1002.6 |
| 20260830205254 | 56 | 290 | 1.0 | 3.0 | 0.01 | 0.28 | 0.28 | 94 | 1002.5 |
| 20260830204755 | 56 | 285 | 1.0 | 3.0 | 0.01 | 0.28 | 0.28 | 93 | 1002.4 |
| 20260830204254 | 56 | 280 | 1.0 | 3.0 | 0.00 | 0.28 | 0.28 | 93 | 1002.4 |
| 20260830203753 | 57 | 276 | 1.0 | 2.0 | 0.00 | 0.28 | 0.28 | 93 | 1002.4 |
| 20260830202254 | 57 | 292 | 1.0 | 5.0 | 0.01 | 0.28 | 0.28 | 93 | 1002.2 |
| 20260830201754 | 57 | 311 | 2.0 | 6.0 | 0.01 | 0.28 | 0.28 | 92 | 1002.2 |
| 20260830201256 | 57 | 287 | 1.0 | 6.0 | 0.01 | 0.28 | 0.28 | 92 | 1002.2 |
| 20260830200754 | 57 | 306 | 2.0 | 6.0 | 0.01 | 0.28 | 0.28 | 92 | 1002.1 |
| 20260830200255 | 57 | 308 | 2.0 | 5.0 | 0.01 | 0.28 | 0.28 | 92 | 1002.1 |
| 20260830195254 | 57 | 297 | 0.0 | 2.0 | 0.01 | 0.28 | 0.28 | 93 | 1001.9 |
| 20260830194754 | 57 | 299 | 1.0 | 2.0 | 0.01 | 0.28 | 0.28 | 92 | 1001.8 |
| 20260830194254 | 57 | 298 | 1.0 | 5.0 | 0.01 | 0.28 | 0.28 | 92 | 1001.8 |
| 20260830193754 | 57 | 306 | 2.0 | 5.0 | 0.01 | 0.28 | 0.28 | 92 | 1001.7 |
| 20260830193254 | 57 | 283 | 1.0 | 6.0 | 0.01 | 0.28 | 0.28 | 92 | 1001.7 |
| 20260830192755 | 57 | 292 | 3.0 | 7.0 | 0.01 | 0.28 | 0.28 | 91 | 1001.7 |
| 20260830192255 | 57 | 288 | 3.0 | 6.0 | 0.01 | 0.27 | 0.27 | 91 | 1001.6 |
| 20260830191754 | 57 | 290 | 4.0 | 7.0 | 0.01 | 0.27 | 0.27 | 90 | 1001.6 |
| 20260830190755 | 58 | 287 | 4.0 | 9.0 | 0.01 | 0.27 | 0.27 | 90 | 1001.5 |
| 20260830190254 | 59 | 280 | 5.0 | 12.0 | 0.01 | 0.27 | 0.27 | 91 | 1001.4 |
| 20260830185756 | 60 | 289 | 1.0 | 2.0 | 0.01 | 0.27 | 0.27 | 93 | 1001.3 |
| 20260830185256 | 60 | 168 | 0.0 | 0.0 | 0.01 | 0.27 | 0.27 | 93 | 1001.2 |
| 20260830184755 | 60 | 149 | 0.0 | 0.0 | 0.01 | 0.27 | 0.27 | 93 | 1001.2 |
| 20260830184254 | 60 | 150 | 0.0 | 0.0 | 0.01 | 0.27 | 0.27 | 93 | 1001.1 |
| 20260830183755 | 60 | 149 | 0.0 | 0.0 | 0.01 | 0.27 | 0.27 | 93 | 1001.1 |
| 20260830183255 | 60 | 150 | 0.0 | 0.0 | 0.01 | 0.27 | 0.27 | 93 | 1001.1 |
| 20260830182255 | 60 | 139 | 0.0 | 1.0 | 0.00 | 0.26 | 0.26 | 92 | 1001.0 |
| 20260830181755 | 60 | 136 | 0.0 | 0.0 | 0.01 | 0.26 | 0.26 | 92 | 1001.0 |
| 20260830181255 | 60 | 150 | 0.0 | 0.0 | 0.01 | 0.26 | 0.26 | 92 | 1001.0 |
| 20260830180756 | 60 | 150 | 0.0 | 0.0 | 0.01 | 0.26 | 0.26 | 92 | 1001.0 |
| 20260830180255 | 60 | 148 | 0.0 | 0.0 | 0.01 | 0.26 | 0.26 | 92 | 1001.0 |
| 20260830175755 | 60 | 152 | 0.0 | 1.0 | 0.01 | 0.26 | 0.26 | 92 | 1000.9 |
| 20260830175255 | 60 | 148 | 0.0 | 1.0 | 0.02 | 0.26 | 0.26 | 92 | 1000.9 |
| 20260830174255 | 60 | 287 | 0.0 | 0.0 | 0.02 | 0.26 | 0.26 | 91 | 1000.9 |
| 20260830173257 | 60 | 287 | 0.0 | 1.0 | 0.02 | 0.27 | 0.26 | 91 | 1000.9 |
| 20260830172755 | 60 | 283 | 0.0 | 1.0 | 0.02 | 0.27 | 0.26 | 92 | 1000.9 |
| 20260830172257 | 60 | 280 | 0.0 | 0.0 | 0.02 | 0.27 | 0.26 | 92 | 1000.8 |
| 20260830171257 | 60 | 280 | 0.0 | 1.0 | 0.01 | 0.26 | 0.25 | 91 | 1000.9 |
| 20260830165257 | 60 | 291 | 1.0 | 2.0 | 0.01 | 0.25 | 0.24 | 91 | 1000.9 |
| 20260830164755 | 60 | 287 | 1.0 | 3.0 | 0.02 | 0.25 | 0.24 | 91 | 1000.9 |
| 20260830164257 | 60 | 285 | 1.0 | 2.0 | 0.02 | 0.25 | 0.24 | 91 | 1000.8 |
| 20260830163257 | 60 | 310 | 0.0 | 3.0 | 0.02 | 0.25 | 0.24 | 92 | 1000.8 |
| 20260830162756 | 60 | 285 | 0.0 | 1.0 | 0.02 | 0.25 | 0.24 | 92 | 1000.8 |
| 20260830162256 | 60 | 294 | 1.0 | 2.0 | 0.03 | 0.25 | 0.24 | 91 | 1000.9 |
| 20260830161756 | 60 | 267 | 0.0 | 2.0 | 0.03 | 0.25 | 0.24 | 92 | 1000.9 |
| 20260830161257 | 60 | 310 | 0.0 | 1.0 | 0.03 | 0.25 | 0.24 | 92 | 1000.9 |
| 20260830160756 | 60 | 284 | 0.0 | 1.0 | 0.03 | 0.25 | 0.24 | 91 | 1000.9 |
| 20260830160256 | 60 | 305 | 0.0 | 2.0 | 0.03 | 0.25 | 0.24 | 91 | 1000.9 |
| 20260830155757 | 60 | 299 | 0.0 | 3.0 | 0.02 | 0.24 | 0.24 | 90 | 1000.8 |
| 20260830155257 | 60 | 304 | 0.0 | 3.0 | 0.02 | 0.24 | 0.24 | 90 | 1000.8 |
| 20260830154757 | 60 | 247 | 1.0 | 2.0 | 0.02 | 0.24 | 0.23 | 89 | 1000.8 |
| 20260830154257 | 61 | 309 | 0.0 | 2.0 | 0.02 | 0.24 | 0.23 | 89 | 1000.8 |
| 20260830153758 | 61 | 275 | 2.0 | 5.0 | 0.01 | 0.23 | 0.22 | 88 | 1000.8 |
| 20260830153256 | 61 | 300 | 1.0 | 5.0 | 0.01 | 0.23 | 0.22 | 88 | 1000.8 |
| 20260830152756 | 61 | 306 | 1.0 | 5.0 | 0.01 | 0.23 | 0.22 | 86 | 1000.8 |
| 20260830152257 | 62 | 324 | 4.0 | 8.0 | 0.00 | 0.22 | 0.21 | 84 | 1000.7 |
| 20260830151757 | 62 | 285 | 4.0 | 10.0 | 0.00 | 0.22 | 0.21 | 83 | 1000.7 |
| 20260830151256 | 63 | 294 | 5.0 | 8.0 | 0.00 | 0.22 | 0.21 | 83 | 1000.7 |
| 20260830150758 | 63 | 295 | 3.0 | 8.0 | 0.00 | 0.23 | 0.21 | 82 | 1000.8 |
| 20260830150256 | 64 | 301 | 3.0 | 6.0 | 0.00 | 0.24 | 0.21 | 83 | 1000.7 |
| 20260830145757 | 64 | 343 | 3.0 | 8.0 | 0.00 | 0.27 | 0.21 | 82 | 1000.7 |
| 20260830145257 | 64 | 283 | 1.0 | 8.0 | 0.00 | 0.27 | 0.21 | 81 | 1000.7 |
| 20260830144758 | 65 | 326 | 2.0 | 7.0 | 0.00 | 0.27 | 0.21 | 81 | 1000.6 |
| 20260830144256 | 65 | 313 | 4.0 | 8.0 | 0.00 | 0.27 | 0.21 | 79 | 1000.6 |
| 20260830143757 | 66 | 299 | 2.0 | 8.0 | 0.00 | 0.27 | 0.21 | 78 | 1000.7 |
| 20260830143257 | 66 | 296 | 3.0 | 8.0 | 0.00 | 0.27 | 0.21 | 77 | 1000.7 |
| 20260830142758 | 66 | 305 | 3.0 | 10.0 | 0.00 | 0.27 | 0.21 | 77 | 1000.6 |
| 20260830142257 | 67 | 244 | 2.0 | 12.0 | 0.00 | 0.27 | 0.21 | 77 | 1000.6 |
| 20260830141759 | 67 | 327 | 3.0 | 8.0 | 0.00 | 0.27 | 0.21 | 76 | 1000.6 |
| 20260830141257 | 67 | 318 | 5.0 | 9.0 | 0.00 | 0.27 | 0.21 | 75 | 1000.7 |
| 20260830135757 | 68 | 291 | 3.0 | 6.0 | 0.00 | 0.27 | 0.21 | 76 | 1000.6 |
| 20260830135258 | 68 | 339 | 4.0 | 12.0 | 0.00 | 0.27 | 0.21 | 76 | 1000.6 |
| 20260830134759 | 67 | 201 | 4.0 | 12.0 | 0.00 | 0.28 | 0.21 | 78 | 1000.6 |
| 20260830134257 | 68 | 320 | 5.0 | 12.0 | 0.00 | 0.28 | 0.21 | 75 | 1000.7 |
| 20260830133757 | 68 | 305 | 5.0 | 10.0 | 0.00 | 0.28 | 0.21 | 74 | 1000.7 |
| 20260830133257 | 68 | 328 | 4.0 | 7.0 | 0.00 | 0.28 | 0.21 | 74 | 1000.7 |
| 20260830132757 | 68 | 290 | 3.0 | 8.0 | 0.00 | 0.28 | 0.21 | 74 | 1000.7 |
| 20260830132258 | 68 | 335 | 5.0 | 10.0 | 0.00 | 0.28 | 0.21 | 74 | 1000.7 |
| 20260830131757 | 68 | 213 | 4.0 | 9.0 | 0.00 | 0.28 | 0.21 | 72 | 1000.8 |
| 20260830130757 | 69 | 277 | 3.0 | 10.0 | 0.00 | 0.28 | 0.21 | 74 | 1000.7 |
| 20260830130257 | 68 | 325 | 3.0 | 13.0 | 0.00 | 0.28 | 0.21 | 75 | 1000.7 |
| 20260830125757 | 68 | 168 | 3.0 | 12.0 | 0.00 | 0.28 | 0.21 | 76 | 1000.8 |
| 20260830124757 | 68 | 229 | 5.0 | 9.0 | 0.00 | 0.28 | 0.21 | 77 | 1001.0 |
| 20260830124259 | 68 | 59 | 3.0 | 9.0 | 0.00 | 0.28 | 0.21 | 79 | 1001.0 |
| 20260830123758 | 68 | 298 | 4.0 | 10.0 | 0.00 | 0.28 | 0.21 | 78 | 1001.0 |
| 20260830123259 | 68 | 8 | 3.0 | 6.0 | 0.00 | 0.28 | 0.21 | 80 | 1001.0 |
| 20260830122757 | 67 | 304 | 5.0 | 14.0 | 0.00 | 0.28 | 0.21 | 80 | 1001.0 |
| 20260830122258 | 67 | 284 | 6.0 | 13.0 | 0.00 | 0.28 | 0.21 | 78 | 1001.1 |
| 20260830121758 | 67 | 297 | 5.0 | 12.0 | 0.00 | 0.28 | 0.21 | 77 | 1001.0 |
| 20260830121258 | 67 | 299 | 4.0 | 12.0 | 0.00 | 0.28 | 0.21 | 78 | 1001.0 |
| 20260830120759 | 68 | 314 | 5.0 | 13.0 | 0.00 | 0.28 | 0.21 | 78 | 1001.0 |
| 20260830120259 | 67 | 274 | 3.0 | 7.0 | 0.00 | 0.28 | 0.21 | 81 | 1001.0 |
| 20260830115759 | 67 | 329 | 3.0 | 8.0 | 0.00 | 0.28 | 0.21 | 80 | 1001.0 |
| 20260830115259 | 66 | 210 | 3.0 | 8.0 | 0.00 | 0.28 | 0.21 | 83 | 1001.0 |
| 20260830114800 | 66 | 357 | 4.0 | 12.0 | 0.00 | 0.28 | 0.21 | 85 | 1001.0 |
| 20260830113258 | 66 | 185 | 3.0 | 10.0 | 0.00 | 0.28 | 0.21 | 86 | 1001.0 |
| 20260830112758 | 66 | 304 | 3.0 | 9.0 | 0.00 | 0.29 | 0.21 | 86 | 1001.0 |
| 20260830112300 | 66 | 200 | 4.0 | 10.0 | 0.00 | 0.29 | 0.21 | 86 | 1001.0 |
| 20260830111758 | 66 | 299 | 3.0 | 9.0 | 0.00 | 0.30 | 0.21 | 86 | 1001.1 |
| 20260830110759 | 66 | 308 | 3.0 | 12.0 | 0.01 | 0.31 | 0.21 | 88 | 1001.1 |
| 20260830110300 | 65 | 298 | 2.0 | 9.0 | 0.02 | 0.31 | 0.21 | 89 | 1001.2 |
| 20260830105759 | 65 | 173 | 2.0 | 9.0 | 0.02 | 0.31 | 0.21 | 90 | 1001.1 |
| 20260830104308 | 63 | 238 | 5.0 | 13.0 | 0.06 | 0.32 | 0.21 | 92 | 1001.2 |
| 20260830103801 | 63 | 231 | 5.0 | 10.0 | 0.06 | 0.33 | 0.21 | 95 | 1001.1 |
| 20260830101759 | 62 | 142 | 6.0 | 12.0 | 0.06 | 0.36 | 0.21 | 96 | 1001.3 |
| 20260830101301 | 62 | 146 | 7.0 | 12.0 | 0.07 | 0.37 | 0.21 | 96 | 1001.5 |
| 20260830100800 | 61 | 138 | 7.0 | 13.0 | 0.07 | 0.38 | 0.21 | 95 | 1001.6 |
| 20260830095759 | 61 | 172 | 6.0 | 12.0 | 0.06 | 0.39 | 0.19 | 96 | 1001.9 |
| 20260830095259 | 61 | 167 | 7.0 | 17.0 | 0.06 | 0.40 | 0.19 | 95 | 1002.0 |
| 20260830094759 | 61 | 148 | 10.0 | 15.0 | 0.02 | 0.39 | 0.16 | 95 | 1002.0 |
| 20260830094259 | 62 | 134 | 7.0 | 13.0 | 0.02 | 0.40 | 0.16 | 95 | 1002.0 |
| 20260830093759 | 62 | 147 | 7.0 | 14.0 | 0.02 | 0.43 | 0.16 | 96 | 1002.0 |
| 20260830093259 | 61 | 147 | 5.0 | 12.0 | 0.03 | 0.44 | 0.16 | 96 | 1002.1 |
| 20260830092801 | 61 | 157 | 4.0 | 7.0 | 0.02 | 0.46 | 0.15 | 96 | 1002.2 |
| 20260830092259 | 61 | 166 | 2.0 | 6.0 | 0.02 | 0.49 | 0.15 | 96 | 1002.1 |
| 20260830091759 | 60 | 160 | 3.0 | 6.0 | 0.02 | 0.51 | 0.15 | 96 | 1002.1 |
| 20260830091259 | 60 | 144 | 3.0 | 6.0 | 0.02 | 0.52 | 0.14 | 96 | 1002.2 |
| 20260830090300 | 60 | 180 | 2.0 | 6.0 | 0.01 | 0.54 | 0.13 | 96 | 1002.5 |
| 20260830085759 | 60 | 164 | 2.0 | 6.0 | 0.02 | 0.54 | 0.13 | 96 | 1002.6 |
| 20260830085301 | 60 | 170 | 1.0 | 7.0 | 0.02 | 0.56 | 0.13 | 96 | 1002.5 |
| 20260830084800 | 60 | 151 | 3.0 | 8.0 | 0.02 | 0.57 | 0.13 | 96 | 1002.6 |
| 20260830084259 | 60 | 177 | 5.0 | 8.0 | 0.03 | 0.58 | 0.13 | 96 | 1002.5 |
| 20260830083800 | 60 | 164 | 6.0 | 9.0 | 0.04 | 0.61 | 0.13 | 97 | 1002.4 |
| 20260830082800 | 60 | 164 | 4.0 | 10.0 | 0.04 | 0.63 | 0.13 | 97 | 1002.4 |
| 20260830082259 | 60 | 185 | 2.0 | 9.0 | 0.04 | 0.64 | 0.13 | 97 | 1002.5 |
| 20260830081800 | 60 | 189 | 4.0 | 12.0 | 0.04 | 0.65 | 0.13 | 97 | 1002.9 |
| 20260830081259 | 60 | 287 | 3.0 | 14.0 | 0.04 | 0.66 | 0.13 | 97 | 1002.8 |
| 20260830080800 | 60 | 205 | 4.0 | 10.0 | 0.04 | 0.67 | 0.13 | 97 | 1002.7 |
| 20260830075800 | 60 | 307 | 1.0 | 5.0 | 0.03 | 0.69 | 0.12 | 98 | 1002.3 |
| 20260830075300 | 60 | 185 | 5.0 | 13.0 | 0.04 | 0.71 | 0.12 | 98 | 1001.8 |
| 20260830074301 | 60 | 132 | 5.0 | 6.0 | 0.02 | 0.72 | 0.10 | 98 | 1002.4 |
| 20260830073800 | 60 | 136 | 3.0 | 6.0 | 0.02 | 0.72 | 0.09 | 98 | 1002.6 |
| 20260830073300 | 60 | 157 | 3.0 | 6.0 | 0.02 | 0.72 | 0.09 | 99 | 1002.9 |
| 20260830072800 | 60 | 111 | 1.0 | 2.0 | 0.01 | 0.72 | 0.09 | 98 | 1003.1 |
| 20260830072301 | 59 | 97 | 0.0 | 0.0 | 0.01 | 0.74 | 0.09 | 98 | 1003.3 |
| 20260830071801 | 59 | 97 | 0.0 | 0.0 | 0.01 | 0.75 | 0.09 | 98 | 1003.3 |
| 20260830071300 | 59 | 97 | 0.0 | 0.0 | 0.01 | 0.76 | 0.09 | 98 | 1003.4 |
| 20260830070801 | 59 | 97 | 0.0 | 1.0 | 0.01 | 0.76 | 0.09 | 98 | 1003.4 |
| 20260830064801 | 59 | 97 | 0.0 | 0.0 | 0.01 | 0.83 | 0.08 | 98 | 1003.4 |
| 20260830064302 | 58 | 97 | 0.0 | 0.0 | 0.02 | 0.86 | 0.08 | 98 | 1003.4 |
| 20260830063800 | 58 | 97 | 0.0 | 0.0 | 0.02 | 0.87 | 0.08 | 98 | 1003.4 |
| 20260830063302 | 58 | 97 | 0.0 | 0.0 | 0.02 | 0.91 | 0.08 | 98 | 1003.4 |
| 20260830062800 | 58 | 97 | 0.0 | 1.0 | 0.02 | 0.93 | 0.08 | 98 | 1003.3 |
| 20260830062305 | 58 | 82 | 0.0 | 1.0 | 0.02 | 0.95 | 0.08 | 98 | 1003.3 |
| 20260830061302 | 58 | 90 | 0.0 | 0.0 | 0.02 | 0.98 | 0.08 | 98 | 1003.6 |
| 20260830055802 | 58 | 107 | 0.0 | 0.0 | 0.05 | 0.98 | 0.08 | 98 | 1003.4 |
| 20260830055300 | 58 | 91 | 0.0 | 1.0 | 0.04 | 0.98 | 0.07 | 98 | 1003.5 |
| 20260830054801 | 57 | 104 | 0.0 | 1.0 | 0.04 | 0.98 | 0.07 | 98 | 1003.5 |
| 20260830054303 | 58 | 107 | 0.0 | 0.0 | 0.03 | 0.98 | 0.06 | 98 | 1003.5 |
| 20260830053301 | 58 | 107 | 0.0 | 1.0 | 0.03 | 0.98 | 0.06 | 98 | 1003.6 |
| 20260830052801 | 58 | 93 | 0.0 | 1.0 | 0.03 | 0.98 | 0.06 | 98 | 1003.6 |
| 20260830052301 | 58 | 103 | 0.0 | 1.0 | 0.03 | 0.98 | 0.06 | 98 | 1003.6 |
| 20260830051801 | 58 | 98 | 1.0 | 2.0 | 0.03 | 0.99 | 0.06 | 98 | 1003.6 |
| 20260830051301 | 57 | 139 | 0.0 | 1.0 | 0.02 | 0.98 | 0.06 | 98 | 1003.6 |
| 20260830050801 | 57 | 96 | 0.0 | 0.0 | 0.02 | 0.98 | 0.05 | 98 | 1003.7 |
| 20260830050303 | 57 | 96 | 0.0 | 0.0 | 0.02 | 0.98 | 0.04 | 98 | 1003.7 |
| 20260830045305 | 57 | 96 | 0.0 | 0.0 | 0.01 | 0.97 | 0.03 | 98 | 1003.7 |
| 20260830044801 | 57 | 96 | 0.0 | 1.0 | 0.01 | 0.97 | 0.03 | 98 | 1003.8 |
| 20260830044302 | 57 | 96 | 0.0 | 0.0 | 0.01 | 0.97 | 0.03 | 98 | 1003.8 |
| 20260830043303 | 57 | 96 | 0.0 | 1.0 | 0.01 | 0.97 | 0.03 | 98 | 1003.9 |
| 20260830042803 | 57 | 102 | 0.0 | 0.0 | 0.01 | 0.97 | 0.03 | 98 | 1003.8 |